Time,TemperatureF,DewpointF,PressureIn,WindDirection,WindDirectionDegrees,WindSpeedMPH,WindSpeedGustMPH,Humidity,HourlyPrecipIn,Conditions,Clouds,dailyrainin,SoftwareType,DateUTC
2013-03-07 00:00:00,25.4,23.1,30.23,SSE,155,2.0,2.0,91,0.00,,---,0.00,VWS V14.01,2013-03-07 05:00:00,
2013-03-07 00:05:00,25.4,23.4,30.24,WSW,242,0.0,1.0,92,0.00,,---,0.00,VWS V14.01,2013-03-07 05:05:00,
2013-03-07 00:10:00,25.5,23.5,30.24,WNW,285,0.0,1.0,92,0.00,,---,0.00,VWS V14.01,2013-03-07 05:10:00,
2013-03-07 00:15:00,25.5,23.5,30.24,SSE,165,0.0,2.0,92,0.00,,---,0.00,VWS V14.01,2013-03-07 05:15:00,
2013-03-07 00:20:00,25.4,23.4,30.24,NW,305,0.0,1.0,92,0.00,,---,0.00,VWS V14.01,2013-03-07 05:20:00,
2013-03-07 00:25:00,25.5,23.5,30.24,SE,139,1.0,1.0,92,0.00,,---,0.00,VWS V14.01,2013-03-07 05:25:00,
2013-03-07 00:30:00,25.4,23.4,30.24,WSW,257,1.0,2.0,92,0.00,,---,0.00,VWS V14.01,2013-03-07 05:30:00,
2013-03-07 00:35:00,25.4,23.4,30.24,East,96,1.0,2.0,92,0.00,,---,0.00,VWS V14.01,2013-03-07 05:35:00,
2013-03-07 00:40:00,25.4,23.4,30.24,SSW,212,1.0,1.0,92,0.00,,---,0.00,VWS V14.01,2013-03-07 05:40:00,
2013-03-07 00:45:00,25.4,23.4,30.24,WSW,243,0.0,1.0,92,0.00,,---,0.00,VWS V14.01,2013-03-07 05:45:00,
2013-03-07 00:50:00,25.4,23.4,30.24,SSE,163,1.0,1.0,92,0.00,,---,0.00,VWS V14.01,2013-03-07 05:50:00,
2013-03-07 00:55:00,25.3,23.3,30.24,SSE,166,1.0,1.0,92,0.00,,---,0.00,VWS V14.01,2013-03-07 05:55:00,
2013-03-07 01:00:00,25.3,23.3,30.24,WNW,283,1.0,2.0,92,0.00,,---,0.00,VWS V14.01,2013-03-07 06:00:00,
2013-03-07 01:05:00,25.3,23.0,30.24,SW,215,0.0,2.0,91,0.00,,---,0.00,VWS V14.01,2013-03-07 06:05:00,
2013-03-07 01:10:00,25.2,23.0,30.24,SW,215,0.0,0.0,91,0.00,,---,0.00,VWS V14.01,2013-03-07 06:10:00,
2013-03-07 01:15:00,25.3,23.3,30.25,SSE,155,0.0,0.0,92,0.00,,---,0.00,VWS V14.01,2013-03-07 06:15:00,
2013-03-07 01:20:00,25.2,23.0,30.25,SSW,200,0.0,0.0,91,0.00,,---,0.00,VWS V14.01,2013-03-07 06:20:00,
2013-03-07 01:25:00,25.3,23.0,30.25,SSW,209,1.0,1.0,91,0.00,,---,0.00,VWS V14.01,2013-03-07 06:25:00,
2013-03-07 01:30:00,25.2,23.0,30.25,ENE,62,0.0,0.0,91,0.00,,---,0.00,VWS V14.01,2013-03-07 06:30:00,
2013-03-07 01:35:00,25.2,23.0,30.25,ENE,62,0.0,0.0,91,0.00,,---,0.00,VWS V14.01,2013-03-07 06:35:00,
2013-03-07 01:40:00,25.2,23.0,30.24,ENE,63,0.0,0.0,91,0.00,,---,0.00,VWS V14.01,2013-03-07 06:40:00,
2013-03-07 01:45:00,25.2,23.2,30.24,West,277,1.0,2.0,92,0.00,,---,0.00,VWS V14.01,2013-03-07 06:45:00,
2013-03-07 01:50:00,25.2,23.2,30.24,West,265,0.0,0.0,92,0.00,,---,0.00,VWS V14.01,2013-03-07 06:50:00,
2013-03-07 01:55:00,25.1,23.1,30.24,WNW,287,0.0,1.0,92,0.00,,---,0.00,VWS V14.01,2013-03-07 06:55:00,
2013-03-07 02:00:00,25.1,23.1,30.24,ENE,71,0.0,3.0,92,0.00,,---,0.00,VWS V14.01,2013-03-07 07:00:00,
2013-03-07 02:05:00,25.1,23.1,30.24,ENE,76,0.0,1.0,92,0.00,,---,0.00,VWS V14.01,2013-03-07 07:05:00,
2013-03-07 02:10:00,25.1,23.1,30.24,WSW,257,3.0,3.0,92,0.00,,---,0.00,VWS V14.01,2013-03-07 07:10:00,
2013-03-07 02:15:00,25.1,23.1,30.24,South,185,1.0,1.0,92,0.00,,---,0.00,VWS V14.01,2013-03-07 07:15:00,
2013-03-07 02:20:00,25.1,23.1,30.24,SSE,167,0.0,0.0,92,0.00,,---,0.00,VWS V14.01,2013-03-07 07:20:00,
2013-03-07 02:25:00,25.1,23.1,30.25,South,174,0.0,1.0,92,0.00,,---,0.00,VWS V14.01,2013-03-07 07:25:00,
2013-03-07 02:30:00,25.1,23.1,30.25,SE,137,0.0,0.0,92,0.00,,---,0.00,VWS V14.01,2013-03-07 07:30:00,
2013-03-07 02:35:00,25.1,22.9,30.25,SSE,163,0.0,0.0,91,0.00,,---,0.00,VWS V14.01,2013-03-07 07:35:00,
2013-03-07 02:40:00,25.1,23.1,30.25,SSE,163,0.0,0.0,92,0.00,,---,0.00,VWS V14.01,2013-03-07 07:40:00,
2013-03-07 02:45:00,25.2,23.2,30.25,SSE,164,0.0,0.0,92,0.00,,---,0.00,VWS V14.01,2013-03-07 07:45:00,
2013-03-07 02:50:00,25.2,23.2,30.25,SSW,212,0.0,0.0,92,0.00,,---,0.00,VWS V14.01,2013-03-07 07:50:00,
2013-03-07 02:55:00,25.2,23.2,30.26,SSE,158,0.0,0.0,92,0.00,,---,0.00,VWS V14.01,2013-03-07 07:55:00,
2013-03-07 03:00:00,25.1,23.1,30.26,West,277,1.0,1.0,92,0.00,,---,0.00,VWS V14.01,2013-03-07 08:00:00,
2013-03-07 03:05:00,25.0,22.8,30.26,WNW,298,2.0,4.0,91,0.00,,---,0.00,VWS V14.01,2013-03-07 08:05:00,
2013-03-07 03:10:00,25.0,23.0,30.25,WNW,288,0.0,0.0,92,0.00,,---,0.00,VWS V14.01,2013-03-07 08:10:00,
2013-03-07 03:15:00,25.0,23.0,30.25,SW,235,0.0,3.0,92,0.00,,---,0.00,VWS V14.01,2013-03-07 08:15:00,
2013-03-07 03:20:00,25.0,23.0,30.25,SW,236,0.0,0.0,92,0.00,,---,0.00,VWS V14.01,2013-03-07 08:20:00,
2013-03-07 03:25:00,25.0,23.0,30.25,WSW,239,0.0,0.0,92,0.00,,---,0.00,VWS V14.01,2013-03-07 08:25:00,
2013-03-07 03:30:00,25.0,23.0,30.25,SSW,212,1.0,1.0,92,0.00,,---,0.00,VWS V14.01,2013-03-07 08:30:00,
2013-03-07 03:35:00,25.0,23.0,30.25,WSW,246,1.0,1.0,92,0.00,,---,0.00,VWS V14.01,2013-03-07 08:35:00,
2013-03-07 03:40:00,25.0,23.0,30.25,SSW,212,0.0,1.0,92,0.00,,---,0.00,VWS V14.01,2013-03-07 08:40:00,
2013-03-07 03:45:00,25.1,23.1,30.25,ESE,117,0.0,0.0,92,0.00,,---,0.00,VWS V14.01,2013-03-07 08:45:00,
2013-03-07 03:50:00,25.1,23.1,30.25,SE,129,1.0,2.0,92,0.00,,---,0.00,VWS V14.01,2013-03-07 08:50:00,
2013-03-07 03:55:00,25.1,23.1,30.26,SE,126,1.0,1.0,92,0.00,,---,0.00,VWS V14.01,2013-03-07 08:55:00,
2013-03-07 04:01:00,25.1,23.1,30.26,West,276,0.0,0.0,92,0.00,,---,0.00,VWS V14.01,2013-03-07 09:01:00,
2013-03-07 04:06:00,25.1,23.1,30.26,South,178,1.0,1.0,92,0.00,,---,0.00,VWS V14.01,2013-03-07 09:06:00,
2013-03-07 04:11:00,25.2,23.2,30.26,WNW,290,0.0,1.0,92,0.00,,---,0.00,VWS V14.01,2013-03-07 09:11:00,
2013-03-07 04:16:00,25.2,23.2,30.27,SSE,149,0.0,0.0,92,0.00,,---,0.00,VWS V14.01,2013-03-07 09:16:00,
2013-03-07 04:21:00,25.2,23.2,30.27,SW,232,0.0,0.0,92,0.00,,---,0.00,VWS V14.01,2013-03-07 09:21:00,
2013-03-07 04:26:00,25.1,23.1,30.27,SW,217,0.0,0.0,92,0.00,,---,0.00,VWS V14.01,2013-03-07 09:26:00,
2013-03-07 04:31:00,25.1,23.1,30.27,West,269,1.0,1.0,92,0.00,,---,0.00,VWS V14.01,2013-03-07 09:31:00,
2013-03-07 04:36:00,25.2,23.2,30.27,SE,142,1.0,1.0,92,0.00,,---,0.00,VWS V14.01,2013-03-07 09:36:00,
2013-03-07 04:41:00,25.2,23.2,30.28,SSW,205,0.0,0.0,92,0.00,,---,0.00,VWS V14.01,2013-03-07 09:41:00,
2013-03-07 04:46:00,25.2,23.2,30.28,West,263,2.0,3.0,92,0.00,,---,0.00,VWS V14.01,2013-03-07 09:46:00,
2013-03-07 04:51:00,25.2,23.2,30.28,WNW,290,0.0,0.0,92,0.00,,---,0.00,VWS V14.01,2013-03-07 09:51:00,
2013-03-07 04:56:00,25.2,23.2,30.29,West,270,0.0,1.0,92,0.00,,---,0.00,VWS V14.01,2013-03-07 09:56:00,
2013-03-07 05:01:00,25.1,23.1,30.28,SSE,160,1.0,1.0,92,0.00,,---,0.00,VWS V14.01,2013-03-07 10:01:00,
2013-03-07 05:06:00,25.2,23.2,30.28,West,270,0.0,1.0,92,0.00,,---,0.00,VWS V14.01,2013-03-07 10:06:00,
2013-03-07 05:11:00,25.2,23.0,30.29,SE,126,0.0,1.0,91,0.00,,---,0.00,VWS V14.01,2013-03-07 10:11:00,
2013-03-07 05:16:00,25.2,23.2,30.29,SSW,198,1.0,1.0,92,0.00,,---,0.00,VWS V14.01,2013-03-07 10:16:00,
2013-03-07 05:21:00,25.2,23.0,30.29,WSW,238,0.0,1.0,91,0.00,,---,0.00,VWS V14.01,2013-03-07 10:21:00,
2013-03-07 05:26:00,25.3,23.0,30.29,South,188,2.0,3.0,91,0.00,,---,0.00,VWS V14.01,2013-03-07 10:26:00,
2013-03-07 05:31:00,25.3,23.0,30.30,ESE,122,3.0,5.0,91,0.00,,---,0.00,VWS V14.01,2013-03-07 10:31:00,
2013-03-07 05:36:00,25.3,22.8,30.29,WSW,239,3.0,4.0,90,0.00,,---,0.00,VWS V14.01,2013-03-07 10:36:00,
2013-03-07 05:41:00,25.3,23.0,30.30,SSE,155,0.0,1.0,91,0.00,,---,0.00,VWS V14.01,2013-03-07 10:41:00,
2013-03-07 05:46:00,25.3,22.8,30.30,South,189,0.0,0.0,90,0.00,,---,0.00,VWS V14.01,2013-03-07 10:46:00,
2013-03-07 05:51:00,25.3,22.8,30.30,SSW,197,0.0,0.0,90,0.00,,---,0.00,VWS V14.01,2013-03-07 10:51:00,
2013-03-07 05:56:00,25.3,22.8,30.30,SW,229,1.0,1.0,90,0.00,,---,0.00,VWS V14.01,2013-03-07 10:56:00,
2013-03-07 06:01:00,25.3,22.8,30.31,West,278,2.0,2.0,90,0.00,,---,0.00,VWS V14.01,2013-03-07 11:01:00,
2013-03-07 06:06:00,25.3,22.5,30.31,SE,143,0.0,0.0,89,0.00,,---,0.00,VWS V14.01,2013-03-07 11:06:00,
2013-03-07 06:11:00,25.4,22.9,30.31,South,191,1.0,4.0,90,0.00,,---,0.00,VWS V14.01,2013-03-07 11:11:00,
2013-03-07 06:16:00,25.3,22.5,30.30,SE,127,0.0,0.0,89,0.00,,---,0.00,VWS V14.01,2013-03-07 11:16:00,
2013-03-07 06:21:00,25.4,22.9,30.30,SE,128,0.0,1.0,90,0.00,,---,0.00,VWS V14.01,2013-03-07 11:21:00,
2013-03-07 06:26:00,25.4,22.6,30.30,South,184,0.0,1.0,89,0.00,,---,0.00,VWS V14.01,2013-03-07 11:26:00,
2013-03-07 06:31:00,25.4,22.6,30.30,South,169,0.0,0.0,89,0.00,,---,0.00,VWS V14.01,2013-03-07 11:31:00,
2013-03-07 06:36:00,25.4,22.6,30.31,SW,235,0.0,1.0,89,0.00,,---,0.00,VWS V14.01,2013-03-07 11:36:00,
2013-03-07 06:41:00,25.4,22.4,30.31,NNE,27,0.0,1.0,88,0.00,,---,0.00,VWS V14.01,2013-03-07 11:41:00,
2013-03-07 06:46:00,25.3,22.2,30.31,South,176,0.0,0.0,88,0.00,,---,0.00,VWS V14.01,2013-03-07 11:46:00,
2013-03-07 06:51:00,25.3,22.0,30.31,SW,232,0.0,1.0,87,0.00,,---,0.00,VWS V14.01,2013-03-07 11:51:00,
2013-03-07 06:56:00,25.4,22.4,30.31,SW,233,0.0,1.0,88,0.00,,---,0.00,VWS V14.01,2013-03-07 11:56:00,
2013-03-07 07:01:00,25.3,22.2,30.31,SSE,150,0.0,0.0,88,0.00,,---,0.00,VWS V14.01,2013-03-07 12:01:00,
2013-03-07 07:06:00,25.3,22.2,30.31,West,270,0.0,1.0,88,0.00,,---,0.00,VWS V14.01,2013-03-07 12:06:00,
2013-03-07 07:11:00,25.4,22.4,30.31,SSE,163,0.0,0.0,88,0.00,,---,0.00,VWS V14.01,2013-03-07 12:11:00,
2013-03-07 07:16:00,25.4,22.6,30.32,SSE,163,0.0,0.0,89,0.00,,---,0.00,VWS V14.01,2013-03-07 12:16:00,
2013-03-07 07:21:00,25.5,22.2,30.31,SSE,163,0.0,0.0,87,0.00,,---,0.00,VWS V14.01,2013-03-07 12:21:00,
2013-03-07 07:26:00,25.5,22.5,30.31,South,175,1.0,1.0,88,0.00,,---,0.00,VWS V14.01,2013-03-07 12:26:00,
2013-03-07 07:31:00,25.6,22.5,30.31,WSW,246,1.0,1.0,88,0.00,,---,0.00,VWS V14.01,2013-03-07 12:31:00,
2013-03-07 07:36:00,25.7,22.4,30.31,West,264,0.0,0.0,87,0.00,,---,0.00,VWS V14.01,2013-03-07 12:36:00,
2013-03-07 07:41:00,25.8,22.5,30.32,WSW,256,0.0,1.0,87,0.00,,---,0.00,VWS V14.01,2013-03-07 12:41:00,
2013-03-07 07:46:00,25.9,22.6,30.31,WSW,256,0.0,0.0,87,0.00,,---,0.00,VWS V14.01,2013-03-07 12:46:00,
2013-03-07 07:51:00,25.9,22.6,30.31,SSW,197,0.0,1.0,87,0.00,,---,0.00,VWS V14.01,2013-03-07 12:51:00,
2013-03-07 07:56:00,26.0,22.7,30.32,SSW,207,0.0,0.0,87,0.00,,---,0.00,VWS V14.01,2013-03-07 12:56:00,
2013-03-07 08:02:00,26.0,22.7,30.32,WSW,250,0.0,0.0,87,0.00,,---,0.00,VWS V14.01,2013-03-07 13:02:00,
2013-03-07 08:07:00,26.0,22.4,30.32,SE,126,1.0,1.0,86,0.00,,---,0.00,VWS V14.01,2013-03-07 13:07:00,
2013-03-07 08:12:00,26.1,22.8,30.32,SSE,158,0.0,0.0,87,0.00,,---,0.00,VWS V14.01,2013-03-07 13:12:00,
2013-03-07 08:17:00,26.2,22.6,30.32,WSW,243,0.0,0.0,86,0.00,,---,0.00,VWS V14.01,2013-03-07 13:17:00,
2013-03-07 08:22:00,26.3,23.0,30.32,WNW,282,1.0,2.0,87,0.00,,---,0.00,VWS V14.01,2013-03-07 13:22:00,
2013-03-07 08:27:00,26.3,22.7,30.33,SSE,156,2.0,2.0,86,0.00,,---,0.00,VWS V14.01,2013-03-07 13:27:00,
2013-03-07 08:32:00,26.2,22.6,30.33,SE,146,1.0,2.0,86,0.00,,---,0.00,VWS V14.01,2013-03-07 13:32:00,
2013-03-07 08:37:00,26.2,22.9,30.33,SSE,149,2.0,2.0,87,0.00,,---,0.00,VWS V14.01,2013-03-07 13:37:00,
2013-03-07 08:42:00,26.6,23.3,30.33,SSW,207,0.0,1.0,87,0.00,,---,0.00,VWS V14.01,2013-03-07 13:42:00,
2013-03-07 08:47:00,26.5,22.6,30.33,SSE,167,2.0,5.0,85,0.00,,---,0.00,VWS V14.01,2013-03-07 13:47:00,
2013-03-07 08:52:00,26.6,22.4,30.33,West,276,0.0,0.0,84,0.00,,---,0.00,VWS V14.01,2013-03-07 13:52:00,
2013-03-07 08:57:00,26.8,22.6,30.33,SSW,211,1.0,1.0,84,0.00,,---,0.00,VWS V14.01,2013-03-07 13:57:00,
2013-03-07 09:02:00,27.1,22.9,30.34,ESE,115,1.0,3.0,84,0.00,,---,0.00,VWS V14.01,2013-03-07 14:02:00,
2013-03-07 09:07:00,27.3,22.8,30.34,SSW,211,0.0,2.0,83,0.00,,---,0.00,VWS V14.01,2013-03-07 14:07:00,
2013-03-07 09:12:00,27.4,22.9,30.34,ESE,122,0.0,1.0,83,0.00,,---,0.00,VWS V14.01,2013-03-07 14:12:00,
2013-03-07 09:17:00,27.7,23.2,30.34,SW,217,4.0,5.0,83,0.00,,---,0.00,VWS V14.01,2013-03-07 14:17:00,
2013-03-07 09:22:00,27.7,23.2,30.34,SSE,165,2.0,5.0,83,0.00,,---,0.00,VWS V14.01,2013-03-07 14:22:00,
2013-03-07 09:27:00,27.6,23.1,30.34,WNW,291,2.0,4.0,83,0.00,,---,0.00,VWS V14.01,2013-03-07 14:27:00,
2013-03-07 09:32:00,28.0,23.5,30.34,ESE,123,1.0,3.0,83,0.00,,---,0.00,VWS V14.01,2013-03-07 14:32:00,
2013-03-07 09:37:00,28.1,23.6,30.35,ENE,75,0.0,3.0,83,0.00,,---,0.00,VWS V14.01,2013-03-07 14:37:00,
2013-03-07 09:42:00,28.2,23.7,30.34,SW,228,1.0,1.0,83,0.00,,---,0.00,VWS V14.01,2013-03-07 14:42:00,
2013-03-07 09:47:00,28.3,23.5,30.34,SE,143,0.0,4.0,82,0.00,,---,0.00,VWS V14.01,2013-03-07 14:47:00,
2013-03-07 09:52:00,28.4,23.6,30.34,South,191,3.0,4.0,82,0.00,,---,0.00,VWS V14.01,2013-03-07 14:52:00,
2013-03-07 09:57:00,28.9,24.1,30.34,SSE,153,0.0,2.0,82,0.00,,---,0.00,VWS V14.01,2013-03-07 14:57:00,
2013-03-07 10:02:00,29.4,24.3,30.34,SW,221,2.0,3.0,81,0.00,,---,0.00,VWS V14.01,2013-03-07 15:02:00,
2013-03-07 10:07:00,29.6,23.9,30.34,NW,305,1.0,2.0,79,0.00,,---,0.00,VWS V14.01,2013-03-07 15:07:00,
2013-03-07 10:12:00,29.5,23.8,30.34,ENE,77,0.0,2.0,79,0.00,,---,0.00,VWS V14.01,2013-03-07 15:12:00,
2013-03-07 10:17:00,29.5,24.1,30.34,ESE,110,0.0,0.0,80,0.00,,---,0.00,VWS V14.01,2013-03-07 15:17:00,
2013-03-07 10:22:00,29.5,24.1,30.33,SW,226,1.0,1.0,80,0.00,,---,0.00,VWS V14.01,2013-03-07 15:22:00,
2013-03-07 10:27:00,29.9,24.5,30.33,ESE,118,1.0,2.0,80,0.00,,---,0.00,VWS V14.01,2013-03-07 15:27:00,
2013-03-07 10:32:00,30.0,24.3,30.33,East,82,2.0,6.0,79,0.00,,---,0.00,VWS V14.01,2013-03-07 15:32:00,
2013-03-07 10:37:00,30.2,24.5,30.33,SSW,212,2.0,4.0,79,0.00,,---,0.00,VWS V14.01,2013-03-07 15:37:00,
2013-03-07 10:42:00,30.7,24.7,30.33,SSE,160,1.0,4.0,78,0.00,,---,0.00,VWS V14.01,2013-03-07 15:42:00,
2013-03-07 10:47:00,30.8,24.1,30.33,WSW,250,0.0,4.0,76,0.00,,---,0.00,VWS V14.01,2013-03-07 15:47:00,
2013-03-07 10:52:00,31.1,24.8,30.33,SE,135,2.0,6.0,77,0.00,,---,0.00,VWS V14.01,2013-03-07 15:52:00,
2013-03-07 10:57:00,31.5,24.8,30.33,WNW,290,2.0,5.0,76,0.00,,---,0.00,VWS V14.01,2013-03-07 15:57:00,
2013-03-07 11:02:00,32.1,25.1,30.32,South,174,2.0,4.0,75,0.00,,---,0.00,VWS V14.01,2013-03-07 16:02:00,
2013-03-07 11:07:00,32.8,25.4,30.33,SE,125,0.0,3.0,74,0.00,,---,0.00,VWS V14.01,2013-03-07 16:07:00,
2013-03-07 11:12:00,33.0,26.0,30.33,SE,134,1.0,5.0,75,0.00,,---,0.00,VWS V14.01,2013-03-07 16:12:00,
2013-03-07 11:17:00,33.2,25.8,30.33,SW,232,0.0,1.0,74,0.00,,---,0.00,VWS V14.01,2013-03-07 16:17:00,
2013-03-07 11:22:00,33.4,25.7,30.32,SSW,210,1.0,2.0,73,0.00,,---,0.00,VWS V14.01,2013-03-07 16:22:00,
2013-03-07 11:27:00,33.7,26.0,30.32,WSW,239,7.0,7.0,73,0.00,,---,0.00,VWS V14.01,2013-03-07 16:27:00,
2013-03-07 11:32:00,33.5,25.8,30.32,ESE,109,2.0,5.0,73,0.00,,---,0.00,VWS V14.01,2013-03-07 16:32:00,
2013-03-07 11:37:00,34.0,26.3,30.32,NW,313,0.0,4.0,73,0.00,,---,0.00,VWS V14.01,2013-03-07 16:37:00,
2013-03-07 11:42:00,34.0,26.6,30.32,SSW,207,3.0,5.0,74,0.00,,---,0.00,VWS V14.01,2013-03-07 16:42:00,
2013-03-07 11:47:00,34.3,26.6,30.32,West,267,1.0,3.0,73,0.00,,---,0.00,VWS V14.01,2013-03-07 16:47:00,
2013-03-07 11:52:00,34.1,26.4,30.32,SSE,166,0.0,2.0,73,0.00,,---,0.00,VWS V14.01,2013-03-07 16:52:00,
2013-03-07 11:57:00,34.0,26.3,30.32,SW,228,1.0,1.0,73,0.00,,---,0.00,VWS V14.01,2013-03-07 16:57:00,
2013-03-07 12:02:00,33.7,26.6,30.32,East,83,2.0,3.0,75,0.00,,---,0.00,VWS V14.01,2013-03-07 17:02:00,
2013-03-07 12:08:00,34.0,26.9,30.32,East,89,2.0,2.0,75,0.00,,---,0.00,VWS V14.01,2013-03-07 17:08:00,
2013-03-07 12:13:00,34.5,27.4,30.32,SW,235,2.0,2.0,75,0.00,,---,0.00,VWS V14.01,2013-03-07 17:13:00,
2013-03-07 12:18:00,34.7,27.9,30.32,NE,52,3.0,3.0,76,0.00,,---,0.00,VWS V14.01,2013-03-07 17:18:00,
2013-03-07 12:23:00,34.3,27.9,30.32,SE,126,2.0,3.0,77,0.00,,---,0.00,VWS V14.01,2013-03-07 17:23:00,
2013-03-07 12:28:00,34.1,26.7,30.31,NE,44,4.0,4.0,74,0.00,,---,0.00,VWS V14.01,2013-03-07 17:28:00,
2013-03-07 12:33:00,34.5,27.4,30.31,NE,49,5.0,5.0,75,0.00,,---,0.00,VWS V14.01,2013-03-07 17:33:00,
2013-03-07 12:38:00,34.7,27.6,30.31,ESE,120,0.0,1.0,75,0.00,,---,0.00,VWS V14.01,2013-03-07 17:38:00,
2013-03-07 12:43:00,35.3,28.2,30.31,ENE,61,1.0,2.0,75,0.00,,---,0.00,VWS V14.01,2013-03-07 17:43:00,
2013-03-07 12:48:00,35.5,28.4,30.31,South,187,5.0,6.0,75,0.00,,---,0.00,VWS V14.01,2013-03-07 17:48:00,
2013-03-07 12:53:00,35.4,28.3,30.31,NE,44,5.0,6.0,75,0.00,,---,0.00,VWS V14.01,2013-03-07 17:53:00,
2013-03-07 12:58:00,35.7,29.2,30.30,SW,217,0.0,0.0,77,0.00,,---,0.00,VWS V14.01,2013-03-07 17:58:00,
2013-03-07 13:03:00,36.0,28.5,30.31,South,174,3.0,3.0,74,0.00,,---,0.00,VWS V14.01,2013-03-07 18:03:00,
2013-03-07 13:08:00,35.8,28.3,30.31,South,183,3.0,7.0,74,0.00,,---,0.00,VWS V14.01,2013-03-07 18:08:00,
2013-03-07 13:13:00,35.4,27.6,30.31,East,87,2.0,2.0,73,0.00,,---,0.00,VWS V14.01,2013-03-07 18:13:00,
2013-03-07 13:18:00,35.0,27.9,30.30,SSE,147,5.0,5.0,75,0.00,,---,0.00,VWS V14.01,2013-03-07 18:18:00,
2013-03-07 13:23:00,35.2,28.1,30.30,NNE,33,2.0,2.0,75,0.01,,---,0.01,VWS V14.01,2013-03-07 18:23:00,
2013-03-07 13:28:00,35.9,30.6,30.30,NE,46,1.0,5.0,81,0.01,,---,0.01,VWS V14.01,2013-03-07 18:28:00,
2013-03-07 13:33:00,36.2,29.0,30.29,NE,43,0.0,3.0,75,0.01,,---,0.01,VWS V14.01,2013-03-07 18:33:00,
2013-03-07 13:38:00,36.4,29.2,30.30,NW,312,2.0,4.0,75,0.01,,---,0.01,VWS V14.01,2013-03-07 18:38:00,
2013-03-07 13:43:00,35.6,28.1,30.30,ENE,60,1.0,3.0,74,0.01,,---,0.01,VWS V14.01,2013-03-07 18:43:00,
2013-03-07 13:48:00,35.7,29.2,30.29,SW,217,2.0,3.0,77,0.01,,---,0.01,VWS V14.01,2013-03-07 18:48:00,
2013-03-07 13:53:00,36.0,29.2,30.29,ENE,75,2.0,11.0,76,0.01,,---,0.01,VWS V14.01,2013-03-07 18:53:00,
2013-03-07 13:58:00,36.7,30.2,30.29,NE,36,4.0,4.0,77,0.01,,---,0.01,VWS V14.01,2013-03-07 18:58:00,
2013-03-07 14:03:00,36.9,29.7,30.28,SSW,206,3.0,5.0,75,0.01,,---,0.01,VWS V14.01,2013-03-07 19:03:00,
2013-03-07 14:08:00,36.9,30.4,30.28,South,191,6.0,6.0,77,0.01,,---,0.01,VWS V14.01,2013-03-07 19:08:00,
2013-03-07 14:13:00,37.0,29.8,30.28,SW,231,2.0,6.0,75,0.01,,---,0.01,VWS V14.01,2013-03-07 19:13:00,
2013-03-07 14:18:00,37.3,30.8,30.28,NNE,27,1.0,2.0,77,0.01,,---,0.01,VWS V14.01,2013-03-07 19:18:00,
2013-03-07 14:23:00,37.4,29.9,30.28,East,82,2.0,7.0,74,0.00,,---,0.01,VWS V14.01,2013-03-07 19:23:00,
2013-03-07 14:28:00,37.4,30.2,30.28,ESE,114,4.0,6.0,75,0.00,,---,0.01,VWS V14.01,2013-03-07 19:28:00,
2013-03-07 14:33:00,37.8,31.9,30.28,NNW,335,1.0,5.0,79,0.00,,---,0.01,VWS V14.01,2013-03-07 19:33:00,
2013-03-07 14:38:00,37.6,31.1,30.28,South,176,2.0,4.0,77,0.00,,---,0.01,VWS V14.01,2013-03-07 19:38:00,
2013-03-07 14:43:00,37.7,29.5,30.28,East,89,6.0,7.0,72,0.00,,---,0.01,VWS V14.01,2013-03-07 19:43:00,
2013-03-07 14:48:00,37.3,29.5,30.28,SE,128,3.0,3.0,73,0.00,,---,0.01,VWS V14.01,2013-03-07 19:48:00,
2013-03-07 14:53:00,37.7,32.1,30.28,West,264,3.0,3.0,80,0.00,,---,0.01,VWS V14.01,2013-03-07 19:53:00,
2013-03-07 14:58:00,37.9,30.4,30.27,North,9,4.0,4.0,74,0.00,,---,0.01,VWS V14.01,2013-03-07 19:58:00,
2013-03-07 15:03:00,37.2,29.0,30.27,WSW,245,3.0,7.0,72,0.00,,---,0.01,VWS V14.01,2013-03-07 20:03:00,
2013-03-07 15:08:00,37.3,29.1,30.27,ENE,72,7.0,7.0,72,0.00,,---,0.01,VWS V14.01,2013-03-07 20:08:00,
2013-03-07 15:13:00,37.2,30.0,30.27,SSE,158,3.0,4.0,75,0.00,,---,0.01,VWS V14.01,2013-03-07 20:13:00,
2013-03-07 15:18:00,37.5,29.6,30.27,South,187,5.0,8.0,73,0.00,,---,0.01,VWS V14.01,2013-03-07 20:18:00,
2013-03-07 15:23:00,37.1,29.3,30.27,ESE,102,2.0,6.0,73,0.00,,---,0.01,VWS V14.01,2013-03-07 20:23:00,
2013-03-07 15:28:00,37.4,29.5,30.27,SE,131,3.0,5.0,73,0.00,,---,0.01,VWS V14.01,2013-03-07 20:28:00,
2013-03-07 15:33:00,37.6,30.7,30.27,WSW,243,3.0,3.0,76,0.00,,---,0.01,VWS V14.01,2013-03-07 20:33:00,
2013-03-07 15:38:00,37.7,29.2,30.27,WSW,239,3.0,3.0,71,0.00,,---,0.01,VWS V14.01,2013-03-07 20:38:00,
2013-03-07 15:43:00,36.9,28.7,30.27,ESE,120,2.0,4.0,72,0.00,,---,0.01,VWS V14.01,2013-03-07 20:43:00,
2013-03-07 15:48:00,37.5,31.0,30.27,SSE,149,4.0,6.0,77,0.00,,---,0.01,VWS V14.01,2013-03-07 20:48:00,
2013-03-07 15:53:00,37.9,29.7,30.28,SSE,150,2.0,7.0,72,0.00,,---,0.01,VWS V14.01,2013-03-07 20:53:00,
2013-03-07 15:58:00,37.4,29.5,30.28,SE,134,2.0,5.0,73,0.00,,---,0.01,VWS V14.01,2013-03-07 20:58:00,
2013-03-07 16:03:00,37.3,29.1,30.28,SSE,163,0.0,5.0,72,0.00,,---,0.01,VWS V14.01,2013-03-07 21:03:00,
2013-03-07 16:08:00,37.2,29.7,30.28,SSE,162,4.0,6.0,74,0.00,,---,0.01,VWS V14.01,2013-03-07 21:08:00,
2013-03-07 16:13:00,37.6,30.1,30.28,West,267,1.0,8.0,74,0.00,,---,0.01,VWS V14.01,2013-03-07 21:13:00,
2013-03-07 16:18:00,37.5,29.0,30.28,ESE,112,4.0,6.0,71,0.00,,---,0.01,VWS V14.01,2013-03-07 21:18:00,
2013-03-07 16:23:00,37.2,29.0,30.28,SSW,192,3.0,4.0,72,0.00,,---,0.01,VWS V14.01,2013-03-07 21:23:00,
2013-03-07 16:28:00,37.3,29.1,30.28,WSW,238,3.0,6.0,72,0.00,,---,0.01,VWS V14.01,2013-03-07 21:28:00,
2013-03-07 16:33:00,37.4,29.5,30.28,ESE,117,0.0,7.0,73,0.00,,---,0.01,VWS V14.01,2013-03-07 21:33:00,
2013-03-07 16:38:00,36.9,28.7,30.28,SSE,154,1.0,8.0,72,0.00,,---,0.01,VWS V14.01,2013-03-07 21:38:00,
2013-03-07 16:43:00,36.8,29.0,30.28,ESE,119,3.0,6.0,73,0.00,,---,0.01,VWS V14.01,2013-03-07 21:43:00,
2013-03-07 16:48:00,36.8,29.3,30.28,South,170,7.0,7.0,74,0.00,,---,0.01,VWS V14.01,2013-03-07 21:48:00,
2013-03-07 16:53:00,37.1,30.2,30.29,NNE,12,7.0,7.0,76,0.00,,---,0.01,VWS V14.01,2013-03-07 21:53:00,
2013-03-07 16:58:00,36.3,28.5,30.29,South,176,2.0,3.0,73,0.00,,---,0.01,VWS V14.01,2013-03-07 21:58:00,
2013-03-07 17:03:00,35.5,27.7,30.29,SW,218,2.0,3.0,73,0.00,,---,0.01,VWS V14.01,2013-03-07 22:03:00,
2013-03-07 17:08:00,35.2,28.1,30.29,ESE,106,1.0,1.0,75,0.00,,---,0.01,VWS V14.01,2013-03-07 22:08:00,
2013-03-07 17:13:00,35.2,28.7,30.29,SSE,162,2.0,2.0,77,0.00,,---,0.01,VWS V14.01,2013-03-07 22:13:00,
2013-03-07 17:18:00,34.8,27.7,30.29,WSW,242,0.0,7.0,75,0.00,,---,0.01,VWS V14.01,2013-03-07 22:18:00,
2013-03-07 17:23:00,34.6,27.5,30.29,SE,131,6.0,7.0,75,0.00,,---,0.01,VWS V14.01,2013-03-07 22:23:00,
2013-03-07 17:28:00,34.0,27.6,30.29,SSW,200,1.0,5.0,77,0.00,,---,0.01,VWS V14.01,2013-03-07 22:28:00,
2013-03-07 17:33:00,33.2,27.1,30.29,WSW,238,2.0,5.0,78,0.00,,---,0.01,VWS V14.01,2013-03-07 22:33:00,
2013-03-07 17:39:00,32.7,26.6,30.30,SSW,207,3.0,6.0,78,0.00,,---,0.01,VWS V14.01,2013-03-07 22:39:00,
2013-03-07 17:44:00,32.2,26.7,30.29,ESE,115,3.0,3.0,80,0.00,,---,0.01,VWS V14.01,2013-03-07 22:44:00,
2013-03-07 17:49:00,31.8,26.4,30.30,SSE,150,3.0,3.0,80,0.00,,---,0.01,VWS V14.01,2013-03-07 22:49:00,
2013-03-07 17:54:00,31.5,26.4,30.30,SSE,160,1.0,2.0,81,0.00,,---,0.01,VWS V14.01,2013-03-07 22:54:00,
2013-03-07 17:58:00,31.2,26.4,30.30,SE,136,1.0,2.0,82,0.00,,---,0.01,VWS V14.01,2013-03-07 22:58:00,
2013-03-07 18:04:00,31.0,26.2,30.30,SE,131,1.0,3.0,82,0.00,,---,0.01,VWS V14.01,2013-03-07 23:04:00,
2013-03-07 18:09:00,30.8,26.0,30.30,SE,131,3.0,3.0,82,0.00,,---,0.01,VWS V14.01,2013-03-07 23:09:00,
2013-03-07 18:14:00,30.6,26.1,30.30,SE,126,2.0,2.0,83,0.00,,---,0.01,VWS V14.01,2013-03-07 23:14:00,
2013-03-07 18:19:00,30.4,26.1,30.31,ESE,109,0.0,0.0,84,0.00,,---,0.01,VWS V14.01,2013-03-07 23:19:00,
2013-03-07 18:24:00,30.3,26.1,30.31,East,94,0.0,1.0,84,0.00,,---,0.01,VWS V14.01,2013-03-07 23:24:00,
2013-03-07 18:29:00,30.1,25.9,30.31,South,174,2.0,2.0,84,0.00,,---,0.01,VWS V14.01,2013-03-07 23:29:00,
2013-03-07 18:34:00,29.9,25.7,30.31,East,99,4.0,4.0,84,0.00,,---,0.01,VWS V14.01,2013-03-07 23:34:00,
2013-03-07 18:39:00,29.7,25.5,30.32,SE,144,1.0,2.0,84,0.00,,---,0.01,VWS V14.01,2013-03-07 23:39:00,
2013-03-07 18:44:00,29.6,25.4,30.32,South,177,1.0,2.0,84,0.00,,---,0.01,VWS V14.01,2013-03-07 23:44:00,
2013-03-07 18:49:00,29.4,25.5,30.32,West,263,0.0,0.0,85,0.00,,---,0.01,VWS V14.01,2013-03-07 23:49:00,
2013-03-07 18:54:00,29.3,25.4,30.32,SSE,153,0.0,1.0,85,0.00,,---,0.01,VWS V14.01,2013-03-07 23:54:00,
2013-03-07 18:59:00,29.2,25.3,30.32,SE,126,1.0,1.0,85,0.00,,---,0.01,VWS V14.01,2013-03-07 23:59:00,
2013-03-07 19:04:00,29.2,25.5,30.32,SE,129,1.0,1.0,86,0.00,,---,0.01,VWS V14.01,2013-03-08 00:04:00,
2013-03-07 19:09:00,29.0,25.1,30.32,West,266,0.0,0.0,85,0.00,,---,0.01,VWS V14.01,2013-03-08 00:09:00,
2013-03-07 19:14:00,29.0,25.4,30.32,SSE,158,0.0,0.0,86,0.00,,---,0.01,VWS V14.01,2013-03-08 00:14:00,
2013-03-07 19:19:00,28.9,25.2,30.32,SSW,210,0.0,0.0,86,0.00,,---,0.01,VWS V14.01,2013-03-08 00:19:00,
2013-03-07 19:24:00,28.8,25.1,30.33,West,277,0.0,0.0,86,0.00,,---,0.01,VWS V14.01,2013-03-08 00:24:00,
2013-03-07 19:29:00,28.8,25.4,30.33,ENE,75,0.0,0.0,87,0.00,,---,0.01,VWS V14.01,2013-03-08 00:29:00,
2013-03-07 19:34:00,28.7,25.0,30.33,SE,131,0.0,0.0,86,0.00,,---,0.01,VWS V14.01,2013-03-08 00:34:00,
2013-03-07 19:39:00,28.6,25.0,30.33,SE,146,0.0,0.0,86,0.00,,---,0.01,VWS V14.01,2013-03-08 00:39:00,
2013-03-07 19:44:00,28.6,25.0,30.33,East,101,0.0,0.0,86,0.00,,---,0.01,VWS V14.01,2013-03-08 00:44:00,
2013-03-07 19:49:00,28.6,25.2,30.33,ESE,115,0.0,0.0,87,0.00,,---,0.01,VWS V14.01,2013-03-08 00:49:00,
2013-03-07 19:54:00,28.5,24.9,30.34,SSW,204,1.0,1.0,86,0.00,,---,0.01,VWS V14.01,2013-03-08 00:54:00,
2013-03-07 19:59:00,28.4,25.0,30.34,SE,126,2.0,2.0,87,0.00,,---,0.01,VWS V14.01,2013-03-08 00:59:00,
2013-03-07 20:04:00,28.3,24.9,30.34,SSE,152,0.0,1.0,87,0.00,,---,0.01,VWS V14.01,2013-03-08 01:04:00,
2013-03-07 20:09:00,28.3,24.7,30.34,NE,49,3.0,3.0,86,0.00,,---,0.01,VWS V14.01,2013-03-08 01:09:00,
2013-03-07 20:14:00,28.3,24.9,30.34,East,79,2.0,3.0,87,0.00,,---,0.01,VWS V14.01,2013-03-08 01:14:00,
2013-03-07 20:19:00,28.3,24.9,30.34,NE,39,3.0,3.0,87,0.00,,---,0.01,VWS V14.01,2013-03-08 01:19:00,
2013-03-07 20:24:00,28.2,24.8,30.35,NW,326,1.0,4.0,87,0.00,,---,0.01,VWS V14.01,2013-03-08 01:24:00,
2013-03-07 20:29:00,28.2,24.8,30.35,NNE,18,0.0,1.0,87,0.00,,---,0.01,VWS V14.01,2013-03-08 01:29:00,
2013-03-07 20:34:00,28.1,24.7,30.35,East,94,1.0,1.0,87,0.00,,---,0.01,VWS V14.01,2013-03-08 01:34:00,
2013-03-07 20:39:00,28.1,24.7,30.35,SSE,165,0.0,1.0,87,0.00,,---,0.01,VWS V14.01,2013-03-08 01:39:00,
2013-03-07 20:44:00,28.0,24.6,30.35,SSE,163,0.0,0.0,87,0.00,,---,0.01,VWS V14.01,2013-03-08 01:44:00,
2013-03-07 20:49:00,28.0,24.6,30.35,SE,131,0.0,1.0,87,0.00,,---,0.01,VWS V14.01,2013-03-08 01:49:00,
2013-03-07 20:54:00,28.0,24.6,30.35,East,96,1.0,2.0,87,0.00,,---,0.01,VWS V14.01,2013-03-08 01:54:00,
2013-03-07 20:59:00,28.0,24.6,30.35,East,101,1.0,1.0,87,0.00,,---,0.01,VWS V14.01,2013-03-08 01:59:00,
2013-03-07 21:04:00,28.1,25.0,30.35,East,84,0.0,0.0,88,0.00,,---,0.01,VWS V14.01,2013-03-08 02:04:00,
2013-03-07 21:09:00,28.1,24.7,30.35,SSE,150,0.0,1.0,87,0.00,,---,0.01,VWS V14.01,2013-03-08 02:09:00,
2013-03-07 21:14:00,28.1,24.7,30.35,East,101,2.0,2.0,87,0.00,,---,0.01,VWS V14.01,2013-03-08 02:14:00,
2013-03-07 21:19:00,28.1,24.7,30.35,NNE,29,0.0,1.0,87,0.00,,---,0.01,VWS V14.01,2013-03-08 02:19:00,
2013-03-07 21:25:00,28.1,24.7,30.35,SSW,207,0.0,0.0,87,0.00,,---,0.01,VWS V14.01,2013-03-08 02:25:00,
2013-03-07 21:30:00,28.1,24.7,30.35,SSW,212,0.0,0.0,87,0.00,,---,0.01,VWS V14.01,2013-03-08 02:30:00,
2013-03-07 21:35:00,28.1,24.7,30.35,SSW,211,0.0,0.0,87,0.00,,---,0.01,VWS V14.01,2013-03-08 02:35:00,
2013-03-07 21:40:00,28.1,24.7,30.34,SSE,166,0.0,0.0,87,0.00,,---,0.01,VWS V14.01,2013-03-08 02:40:00,
2013-03-07 21:45:00,28.0,24.9,30.34,WSW,255,1.0,1.0,88,0.00,,---,0.01,VWS V14.01,2013-03-08 02:45:00,
2013-03-07 21:50:00,27.9,24.5,30.35,SSE,163,1.0,1.0,87,0.00,,---,0.01,VWS V14.01,2013-03-08 02:50:00,
2013-03-07 21:55:00,27.9,24.5,30.35,SW,228,0.0,0.0,87,0.00,,---,0.01,VWS V14.01,2013-03-08 02:55:00,
2013-03-07 22:00:00,27.8,24.7,30.35,SSE,163,0.0,0.0,88,0.00,,---,0.01,VWS V14.01,2013-03-08 03:00:00,
2013-03-07 22:05:00,27.9,24.8,30.35,SE,140,0.0,0.0,88,0.00,,---,0.01,VWS V14.01,2013-03-08 03:05:00,
2013-03-07 22:10:00,27.9,24.8,30.34,South,181,0.0,0.0,88,0.00,,---,0.01,VWS V14.01,2013-03-08 03:10:00,
2013-03-07 22:15:00,27.8,24.7,30.34,SSE,156,0.0,2.0,88,0.00,,---,0.01,VWS V14.01,2013-03-08 03:15:00,
2013-03-07 22:20:00,27.8,24.7,30.34,SSE,150,0.0,0.0,88,0.00,,---,0.01,VWS V14.01,2013-03-08 03:20:00,
2013-03-07 22:25:00,27.8,24.7,30.34,SSE,150,0.0,0.0,88,0.00,,---,0.01,VWS V14.01,2013-03-08 03:25:00,
2013-03-07 22:30:00,27.8,24.7,30.34,SSE,150,0.0,0.0,88,0.00,,---,0.01,VWS V14.01,2013-03-08 03:30:00,
2013-03-07 22:35:00,27.8,24.7,30.35,WSW,243,0.0,1.0,88,0.00,,---,0.01,VWS V14.01,2013-03-08 03:35:00,
2013-03-07 22:40:00,27.8,24.7,30.35,SSE,155,0.0,0.0,88,0.00,,---,0.01,VWS V14.01,2013-03-08 03:40:00,
2013-03-07 22:45:00,27.8,24.4,30.35,NNE,26,0.0,0.0,87,0.00,,---,0.01,VWS V14.01,2013-03-08 03:45:00,
2013-03-07 22:50:00,27.8,24.7,30.35,ESE,120,0.0,1.0,88,0.00,,---,0.01,VWS V14.01,2013-03-08 03:50:00,
2013-03-07 22:55:00,27.8,24.7,30.35,ESE,120,0.0,0.0,88,0.00,,---,0.01,VWS V14.01,2013-03-08 03:55:00,
2013-03-07 23:00:00,27.8,24.4,30.35,SSW,203,1.0,1.0,87,0.00,,---,0.01,VWS V14.01,2013-03-08 04:00:00,
2013-03-07 23:05:00,27.8,24.2,30.35,South,172,1.0,1.0,86,0.00,,---,0.01,VWS V14.01,2013-03-08 04:05:00,
2013-03-07 23:10:00,27.9,24.5,30.35,SW,219,0.0,0.0,87,0.00,,---,0.01,VWS V14.01,2013-03-08 04:10:00,
2013-03-07 23:15:00,27.9,24.8,30.35,SSW,210,0.0,1.0,88,0.00,,---,0.01,VWS V14.01,2013-03-08 04:15:00,
2013-03-07 23:20:00,27.9,24.5,30.35,SSE,147,0.0,0.0,87,0.00,,---,0.01,VWS V14.01,2013-03-08 04:20:00,
2013-03-07 23:25:00,27.9,24.8,30.35,SSE,150,0.0,0.0,88,0.00,,---,0.01,VWS V14.01,2013-03-08 04:25:00,
2013-03-07 23:30:00,27.9,24.8,30.35,SSE,150,0.0,0.0,88,0.00,,---,0.01,VWS V14.01,2013-03-08 04:30:00,
2013-03-07 23:35:00,27.8,24.7,30.35,SSE,149,0.0,0.0,88,0.00,,---,0.01,VWS V14.01,2013-03-08 04:35:00,
2013-03-07 23:40:00,27.7,24.6,30.35,SSE,150,0.0,0.0,88,0.00,,---,0.01,VWS V14.01,2013-03-08 04:40:00,
2013-03-07 23:45:00,27.6,24.2,30.34,SW,215,0.0,0.0,87,0.00,,---,0.01,VWS V14.01,2013-03-08 04:45:00,
2013-03-07 23:50:00,27.5,24.4,30.35,SW,215,0.0,0.0,88,0.00,,---,0.01,VWS V14.01,2013-03-08 04:50:00,
2013-03-07 23:55:00,27.5,24.4,30.35,SW,215,0.0,0.0,88,0.00,,---,0.01,VWS V14.01,2013-03-08 04:55:00,